This demonstration page uses our WeatherBlox Daily Observations layout. Learn more.

38.88101, -77.10428

Hourly Observations for March 9, 2018

Temp ( °F °C ) Dew Point ( °F °C ) Humidity (%) Winds ( mph kmh ) Pressure ( in mb ) Visibility ( mi km ) Precip ( " mm )
12:33 am 00:33 Cloudy 34 1.1 18 -7.8 52 52 W 8 13 29.88 1012 10 16.0934 0 0
12:52 am 00:52 Cloudy 34 1.1 18 -7.8 52 52 WSW 6 9 29.87 1012 10 16.0934 0 0
1:52 am 01:52 Mostly Cloudy 34 1.1 16 -8.9 48 48 W 7 11 29.86 1011 10 16.0934 0 0
2:52 am 02:52 Mostly Cloudy 34 1.1 15 -9.4 46 46 W 7 11 29.86 1011 10 16.0934 0 0
3:52 am 03:52 Cloudy 34 1.1 14 -10 44 44 W 8 13 29.85 1011 10 16.0934 0 0
4:52 am 04:52 Cloudy 34 1.1 13 -10.6 42 42 W 9 15 29.86 1011 10 16.0934 0 0
5:52 am 05:52 Mostly Clear 34 1.1 14 -10 44 44 W 12 19 29.87 1012 10 16.0934 0 0
6:52 am 06:52 Partly Cloudy 34 1.1 15 -9.4 46 46 W 14 22 29.89 1012 10 16.0934 0 0
7:52 am 07:52 Partly Cloudy 36 2.2 16 -8.9 44 44 W 14 22 29.92 1013 10 16.0934 0 0
8:52 am 08:52 Partly Cloudy 39 3.9 16 -8.9 39 39 WNW 14 22 29.93 1014 10 16.0934 0 0
9:52 am 09:52 Mostly Sunny 41 5 17 -8.3 38 38 WNW 20 31 29.93 1014 10 16.0934 0 0
10:52 am 10:52 Partly Cloudy 44 6.7 17 -8.3 34 34 WNW 18 30 29.92 1013 10 16.0934 0 0
11:52 am 11:52 Mostly Cloudy 43 6.1 18 -7.8 37 37 NW 13 20 29.92 1013 10 16.0934 0 0
12:52 pm 12:52 Mostly Cloudy 43 6.1 17 -8.3 35 35 NW 18 30 29.93 1013 10 16.0934 0 0
1:52 pm 13:52 Cloudy 46 7.8 19 -7.2 34 34 NW 16 26 29.93 1014 10 16.0934 0 0
2:52 pm 14:52 Partly Cloudy 46 7.8 18 -7.8 32 32 NW 14 22 29.92 1013 10 16.0934 0 0
3:52 pm 15:52 Mostly Sunny 44 6.7 17 -8.3 34 34 NW 16 26 29.93 1014 10 16.0934 0 0
4:52 pm 16:52 Mostly Sunny 43 6.1 17 -8.3 35 35 NW 15 24 29.95 1014 10 16.0934 0 0
5:52 pm 17:52 Mostly Sunny 40 4.4 16 -8.9 38 38 NNW 15 24 29.96 1015 10 16.0934 0 0
6:52 pm 18:52 Mostly Clear 39 3.9 15 -9.4 38 38 NW 16 26 29.98 1015 10 16.0934 0 0
7:52 pm 19:52 Clear 38 3.3 14 -10 37 37 NW 14 22 30 1016 10 16.0934 0 0
8:52 pm 20:52 Partly Cloudy 37 2.8 15 -9.4 41 41 WNW 8 13 30.01 1016 10 16.0934 0 0
9:52 pm 21:52 Partly Cloudy 37 2.8 14 -10 39 39 WNW 9 15 30.02 1017 10 16.0934 0 0
10:52 pm 22:52 Mostly Clear 36 2.2 15 -9.4 42 42 W 8 13 30.03 1017 10 16.0934 0 0
11:52 pm 23:52 Mostly Clear 36 2.2 15 -9.4 42 42 W 6 9 30.03 1017 10 16.0934 0 0

Powered by AerisWeather